User: anonymous   Login
Location: Spring Creek
(38.2870°N, 100.2160°W)
Time: 09:15:42
(UTC+00:00)
Language:

PAYLOAD A - Orbit

View from above orbital plane
View from above orbital plane
View from above satellite
View from above satellite

Ground track
Ground track

The orbit data is extracted from the following two-line orbital elements,

1 27840U 03031A   21216.80921356 -.00000021  00000-0  77492-5 0  9992
2 27840  98.3764 183.6516 0096964 257.6989 101.3329 14.38963626950315
Epoch (UTC): 04 August 2021 19:25:16
Eccentricity: 0.0096964
inclination: 98.3764°
perigee height: 692 km
apogee height: 831 km
right ascension of ascending node: 183.6516°
argument of perigee: 257.6989°
revolutions per day: 14.38963626
mean anomaly at epoch: 101.3329°
orbit number at epoch: 95031

The dashed part of the orbit path shows where the satellite is in the earth's shadow,  

DLR